EN

Hourly Weather Kyzylozen

Today, 4 August, Wednesday

Time Temperature Precipitation Wind Pressure Humidity
00:00 +35°C° 0 mm 3 mps 755 mmHg 24%
01:00 +35°C° 0 mm 3 mps 755 mmHg 23%
02:00 +35°C° 0 mm 3 mps 755 mmHg 22%
03:00 +35°C° 0 mm 3 mps 755 mmHg 21%
04:00 +34°C° 0 mm 2 mps 755 mmHg 23%
05:00 +33°C° 0 mm 1 mps 756 mmHg 25%
06:00 +33°C° 0 mm 1 mps 756 mmHg 26%
07:00 +35°C° 0 mm 1 mps 756 mmHg 23%
08:00 +37°C° 0 mm 2 mps 756 mmHg 20%
09:00 +39°C° 0 mm 2 mps 756 mmHg 16%
10:00 +39°C° 0 mm 3 mps 756 mmHg 17%
11:00 +39°C° 0 mm 3 mps 756 mmHg 19%
12:00 +41°C° 0 mm 4 mps 756 mmHg 20%
13:00 +41°C° 0 mm 4 mps 756 mmHg 20%
14:00 +41°C° 0 mm 4 mps 756 mmHg 20%
15:00 +41°C° 0 mm 4 mps 756 mmHg 20%
16:00 +40°C° 0 mm 4 mps 756 mmHg 20%
17:00 +40°C° 0 mm 4 mps 756 mmHg 20%
18:00 +38°C° 0 mm 4 mps 756 mmHg 20%
19:00 +37°C° 0 mm 4 mps 756 mmHg 21%
20:00 +36°C° 0 mm 3 mps 756 mmHg 22%
21:00 +35°C° 0 mm 3 mps 756 mmHg 23%
22:00 +35°C° 0 mm 3 mps 756 mmHg 23%
23:00 +35°C° 0 mm 3 mps 756 mmHg 22%

Tomorrow, 5 August, Thursday

Time Temperature Precipitation Wind Pressure Humidity
00:00 +35°C° 0 mm 3 mps 756 mmHg 22%
01:00 +34°C° 0 mm 2 mps 756 mmHg 22%
02:00 +34°C° 0 mm 2 mps 756 mmHg 23%
03:00 +32°C° 0 mm 2 mps 755 mmHg 23%
04:00 +32°C° 0 mm 2 mps 756 mmHg 25%
05:00 +33°C° 0 mm 3 mps 756 mmHg 26%
06:00 +34°C° 0 mm 3 mps 756 mmHg 28%
07:00 +35°C° 0 mm 3 mps 756 mmHg 25%
08:00 +36°C° 0 mm 3 mps 756 mmHg 23%
09:00 +37°C° 0 mm 3 mps 756 mmHg 21%
10:00 +38°C° 0 mm 3 mps 756 mmHg 20%
11:00 +39°C° 0 mm 3 mps 756 mmHg 18%
12:00 +40°C° 0 mm 3 mps 756 mmHg 17%
13:00 +41°C° 0 mm 4 mps 755 mmHg 18%
14:00 +40°C° 0 mm 4 mps 755 mmHg 19%
15:00 +40°C° 0 mm 5 mps 755 mmHg 21%
16:00 +39°C° 0 mm 5 mps 755 mmHg 23%
17:00 +37°C° 0 mm 5 mps 755 mmHg 26%
18:00 +36°C° 0 mm 5 mps 755 mmHg 28%
19:00 +35°C° 0 mm 4 mps 755 mmHg 30%
20:00 +35°C° 0 mm 4 mps 755 mmHg 32%
21:00 +34°C° 0 mm 3 mps 755 mmHg 34%
22:00 +33°C° 0 mm 4 mps 755 mmHg 36%
23:00 +33°C° 0 mm 4 mps 755 mmHg 38%

Day after tomorrow, 6 August, Friday

Time Temperature Precipitation Wind Pressure Humidity
00:00 +32°C° 0 mm 4 mps 755 mmHg 40%
01:00 +32°C° 0 mm 4 mps 755 mmHg 38%
02:00 +32°C° 0 mm 4 mps 755 mmHg 37%
03:00 +31°C° 0 mm 3 mps 755 mmHg 36%
04:00 +32°C° 0 mm 4 mps 755 mmHg 41%
05:00 +30°C° 0 mm 4 mps 755 mmHg 47%
06:00 +30°C° 0 mm 4 mps 755 mmHg 52%
07:00 +33°C° 0 mm 4 mps 755 mmHg 44%
08:00 +35°C° 0 mm 4 mps 755 mmHg 36%
09:00 +37°C° 0 mm 3 mps 755 mmHg 28%
10:00 +38°C° 0 mm 3 mps 755 mmHg 26%
11:00 +39°C° 0 mm 3 mps 755 mmHg 24%
12:00 +39°C° 0 mm 3 mps 755 mmHg 22%
13:00 +39°C° 0 mm 3 mps 755 mmHg 23%
14:00 +39°C° 0 mm 3 mps 754 mmHg 25%
15:00 +39°C° 0 mm 3 mps 754 mmHg 26%
16:00 +38°C° 0 mm 3 mps 754 mmHg 29%
17:00 +37°C° 0 mm 3 mps 754 mmHg 31%
18:00 +36°C° 0 mm 3 mps 754 mmHg 34%
19:00 +36°C° 0 mm 3 mps 754 mmHg 34%
20:00 +35°C° 0 mm 4 mps 754 mmHg 35%
21:00 +35°C° 0 mm 5 mps 754 mmHg 35%
22:00 +34°C° 0 mm 6 mps 754 mmHg 35%
23:00 +34°C° 0 mm 6 mps 754 mmHg 35%

7 August, Saturday

Time Temperature Precipitation Wind Pressure Humidity
00:00 +33°C° 0 mm 6 mps 754 mmHg 35%
01:00 +33°C° 0 mm 6 mps 753 mmHg 35%
02:00 +33°C° 0 mm 6 mps 753 mmHg 35%
03:00 +32°C° 0 mm 5 mps 753 mmHg 36%
04:00 +33°C° 0 mm 5 mps 753 mmHg 34%
05:00 +34°C° 0 mm 4 mps 754 mmHg 32%
06:00 +34°C° 0 mm 4 mps 754 mmHg 30%
07:00 +36°C° 0 mm 4 mps 754 mmHg 26%
08:00 +38°C° 0 mm 4 mps 754 mmHg 22%
09:00 +41°C° 0 mm 4 mps 754 mmHg 18%
10:00 +42°C° 0 mm 4 mps 753 mmHg 17%
11:00 +43°C° 0 mm 4 mps 753 mmHg 16%
12:00 +43°C° 0 mm 4 mps 753 mmHg 15%
13:00 +43°C° 0 mm 4 mps 753 mmHg 16%
14:00 +42°C° 0 mm 4 mps 753 mmHg 17%
15:00 +42°C° 0 mm 4 mps 753 mmHg 18%
16:00 +40°C° 0 mm 3 mps 753 mmHg 19%
17:00 +40°C° 0 mm 2 mps 753 mmHg 19%
18:00 +39°C° 0 mm 2 mps 753 mmHg 20%
19:00 +38°C° 0 mm 2 mps 753 mmHg 22%
20:00 +38°C° 0 mm 3 mps 753 mmHg 25%
21:00 +37°C° 0 mm 3 mps 753 mmHg 27%
22:00 +36°C° 0 mm 3 mps 753 mmHg 27%
23:00 +36°C° 0 mm 3 mps 753 mmHg 27%

8 August, Sunday

Time Temperature Precipitation Wind Pressure Humidity
00:00 +35°C° 0 mm 3 mps 753 mmHg 26%
01:00 +35°C° 0 mm 3 mps 753 mmHg 25%
02:00 +36°C° 0 mm 4 mps 753 mmHg 24%
03:00 +36°C° 0 mm 4 mps 753 mmHg 22%
04:00 +36°C° 0 mm 4 mps 753 mmHg 22%
05:00 +36°C° 0 mm 4 mps 753 mmHg 21%
06:00 +36°C° 0 mm 4 mps 753 mmHg 20%
07:00 +38°C° 0 mm 4 mps 753 mmHg 19%
08:00 +40°C° 0 mm 5 mps 754 mmHg 17%
09:00 +42°C° 0 mm 5 mps 754 mmHg 15%
10:00 +42°C° 0 mm 5 mps 754 mmHg 15%
11:00 +42°C° 0 mm 6 mps 754 mmHg 16%
12:00 +41°C° 0 mm 6 mps 754 mmHg 17%
13:00 +41°C° 0 mm 6 mps 754 mmHg 17%
14:00 +41°C° 0 mm 6 mps 754 mmHg 17%
15:00 +41°C° 0 mm 6 mps 754 mmHg 17%
16:00 +40°C° 0 mm 5 mps 754 mmHg 19%
17:00 +39°C° 0 mm 5 mps 754 mmHg 20%
18:00 +37°C° 0 mm 4 mps 754 mmHg 22%
19:00 +37°C° 0 mm 4 mps 754 mmHg 23%
20:00 +36°C° 0 mm 3 mps 754 mmHg 24%
21:00 +35°C° 0 mm 3 mps 754 mmHg 26%
22:00 +34°C° 0 mm 3 mps 754 mmHg 32%
23:00 +34°C° 0 mm 3 mps 755 mmHg 38%

9 August, Monday

Time Temperature Precipitation Wind Pressure Humidity
00:00 +32°C° 0 mm 2 mps 755 mmHg 44%
01:00 +32°C° 0 mm 2 mps 755 mmHg 45%
02:00 +32°C° 0 mm 2 mps 755 mmHg 47%
03:00 +32°C° 0 mm 2 mps 755 mmHg 49%
04:00 +31°C° 0 mm 2 mps 755 mmHg 53%
05:00 +31°C° 0 mm 2 mps 755 mmHg 57%
06:00 +31°C° 0 mm 2 mps 755 mmHg 62%
07:00 +33°C° 0 mm 3 mps 755 mmHg 56%
08:00 +34°C° 0 mm 3 mps 756 mmHg 50%
09:00 +36°C° 0 mm 4 mps 756 mmHg 44%
10:00 +36°C° 0 mm 4 mps 756 mmHg 42%
11:00 +37°C° 0 mm 5 mps 756 mmHg 40%
12:00 +37°C° 0 mm 5 mps 756 mmHg 38%
13:00 +37°C° 0 mm 5 mps 756 mmHg 38%
14:00 +36°C° 0 mm 5 mps 756 mmHg 38%
15:00 +36°C° 0 mm 5 mps 756 mmHg 38%
16:00 +36°C° 0 mm 5 mps 756 mmHg 38%
17:00 +35°C° 0 mm 5 mps 755 mmHg 38%
18:00 +35°C° 0 mm 4 mps 755 mmHg 38%
19:00 +34°C° 0 mm 4 mps 755 mmHg 41%
20:00 +34°C° 0 mm 5 mps 755 mmHg 44%
21:00 +33°C° 0 mm 5 mps 755 mmHg 47%
22:00 +33°C° 0 mm 4 mps 755 mmHg 47%
23:00 +33°C° 0 mm 3 mps 755 mmHg 47%
Show more